| time (UTC) | temp C | wind direction | speed KPH | gust KPH | rain 1hr cm | rain 24hr cm | rain mn cm | humidity % | barometer mb |
| 20260505121551 | 13 | 317 | 3.2 | 6.4 | 0.00 | 0.00 | 0.00 | 76 | 1023.8 |
| 20260505120105 | 13 | 306 | 3.2 | 8.0 | 0.00 | 0.00 | 0.00 | 75 | 1023.8 |
| 20260505114547 | 14 | 328 | 1.6 | 6.4 | 0.00 | 0.00 | 0.00 | 74 | 1023.8 |
| 20260505113042 | 14 | 284 | 1.6 | 4.8 | 0.00 | 0.00 | 0.00 | 73 | 1023.9 |
| 20260505111536 | 14 | 279 | 1.6 | 12.9 | 0.00 | 0.00 | 0.00 | 73 | 1023.7 |
| 20260505101520 | 13 | 348 | 3.2 | 6.4 | 0.00 | 0.00 | 0.00 | 78 | 1023.8 |
| 20260505100020 | 13 | 332 | 0.0 | 1.6 | 0.00 | 0.00 | 0.00 | 77 | 1023.8 |
| 20260505094505 | 14 | 332 | 0.0 | 3.2 | 0.00 | 0.00 | 0.00 | 77 | 1023.7 |
| 20260505093101 | 14 | 332 | 0.0 | 3.2 | 0.00 | 0.00 | 0.00 | 76 | 1023.8 |
| 20260505093002 | 14 | 332 | 0.0 | 3.2 | 0.00 | 0.00 | 0.00 | 76 | 1023.8 |
| 20260505091551 | 14 | 305 | 0.0 | 1.6 | 0.00 | 0.00 | 0.00 | 76 | 1023.7 |
| 20260505090044 | 14 | 305 | 0.0 | 3.2 | 0.00 | 0.00 | 0.00 | 75 | 1023.6 |
| 20260505084551 | 14 | 292 | 0.0 | 4.8 | 0.00 | 0.00 | 0.00 | 76 | 1023.6 |
| 20260505083047 | 14 | 289 | 1.6 | 4.8 | 0.00 | 0.00 | 0.00 | 76 | 1023.5 |
| 20260505081540 | 14 | 297 | 3.2 | 8.0 | 0.00 | 0.00 | 0.00 | 76 | 1023.3 |
| 20260505080017 | 14 | 315 | 0.0 | 8.0 | 0.00 | 0.00 | 0.00 | 76 | 1023.1 |
| 20260505074505 | 14 | 301 | 3.2 | 8.0 | 0.00 | 0.00 | 0.00 | 75 | 1023.0 |
| 20260505073110 | 14 | 293 | 3.2 | 8.0 | 0.00 | 0.00 | 0.00 | 75 | 1022.8 |
| 20260505071559 | 15 | 308 | 3.2 | 8.0 | 0.00 | 0.00 | 0.00 | 74 | 1022.7 |
| 20260505070049 | 15 | 267 | 4.8 | 14.5 | 0.00 | 0.00 | 0.00 | 72 | 1022.7 |
| 20260505064542 | 15 | 264 | 3.2 | 14.5 | 0.00 | 0.00 | 0.00 | 71 | 1022.6 |
| 20260505063021 | 15 | 279 | 3.2 | 12.9 | 0.00 | 0.00 | 0.00 | 69 | 1022.3 |
| 20260505061540 | 15 | 270 | 9.7 | 14.5 | 0.00 | 0.00 | 0.00 | 68 | 1022.4 |
| 20260505060014 | 15 | 296 | 8.0 | 14.5 | 0.00 | 0.00 | 0.00 | 68 | 1022.2 |
| 20260505054511 | 15 | 238 | 3.2 | 14.5 | 0.00 | 0.00 | 0.00 | 70 | 1022.0 |
| 20260505053002 | 15 | 275 | 1.6 | 9.7 | 0.00 | 0.00 | 0.00 | 72 | 1021.9 |
| 20260505051555 | 15 | 257 | 3.2 | 16.1 | 0.00 | 0.00 | 0.00 | 71 | 1021.9 |
| 20260505041512 | 15 | 217 | 3.2 | 20.9 | 0.00 | 0.00 | 0.00 | 70 | 1021.4 |
| 20260505040009 | 15 | 264 | 4.8 | 17.7 | 0.00 | 0.00 | 0.00 | 72 | 1021.2 |
| 20260505034510 | 15 | 289 | 8.0 | 17.7 | 0.00 | 0.00 | 0.00 | 72 | 1021.2 |
| 20260505033028 | 15 | 279 | 9.7 | 20.9 | 0.00 | 0.00 | 0.00 | 70 | 1021.2 |
| 20260505031542 | 15 | 267 | 6.4 | 19.3 | 0.00 | 0.00 | 0.00 | 72 | 1021.2 |
| 20260505030030 | 15 | 265 | 16.1 | 29.0 | 0.00 | 0.00 | 0.00 | 71 | 1021.2 |
| 20260505024518 | 15 | 240 | 16.1 | 27.4 | 0.00 | 0.00 | 0.00 | 73 | 1021.3 |
| 20260505023121 | 14 | 265 | 17.7 | 29.0 | 0.00 | 0.00 | 0.00 | 74 | 1021.4 |
| 20260505023003 | 14 | 272 | 16.1 | 29.0 | 0.00 | 0.00 | 0.00 | 74 | 1021.4 |
| 20260505021558 | 14 | 252 | 14.5 | 27.4 | 0.00 | 0.00 | 0.00 | 73 | 1021.4 |
| 20260505020054 | 14 | 269 | 14.5 | 27.4 | 0.00 | 0.00 | 0.00 | 73 | 1021.6 |
| 20260505014544 | 14 | 266 | 17.7 | 29.0 | 0.00 | 0.00 | 0.00 | 74 | 1021.6 |
| 20260505013040 | 14 | 277 | 11.3 | 33.8 | 0.00 | 0.00 | 0.00 | 75 | 1021.7 |
| 20260505011535 | 14 | 263 | 12.9 | 29.0 | 0.00 | 0.00 | 0.00 | 76 | 1021.7 |
| 20260505010016 | 13 | 254 | 11.3 | 30.6 | 0.00 | 0.00 | 0.00 | 78 | 1021.6 |
| 20260505004503 | 13 | 271 | 16.1 | 30.6 | 0.00 | 0.00 | 0.00 | 78 | 1021.5 |
| 20260505003058 | 13 | 263 | 12.9 | 30.6 | 0.00 | 0.00 | 0.00 | 79 | 1021.2 |
| 20260505001551 | 13 | 287 | 19.3 | 30.6 | 0.00 | 0.00 | 0.00 | 79 | 1020.9 |
| 20260505000055 | 13 | 232 | 17.7 | 29.0 | 0.00 | 0.00 | 0.00 | 80 | 1020.7 |
| 20260504234532 | 13 | 277 | 11.3 | 25.7 | 0.00 | 0.00 | 0.00 | 81 | 1020.6 |
| 20260504233018 | 13 | 282 | 9.7 | 29.0 | 0.00 | 0.00 | 0.00 | 81 | 1020.6 |
| 20260504231503 | 13 | 313 | 16.1 | 30.6 | 0.00 | 0.00 | 0.00 | 80 | 1020.5 |
| 20260504230106 | 13 | 271 | 9.7 | 24.1 | 0.00 | 0.00 | 0.00 | 81 | 1020.4 |
| 20260504224535 | 13 | 277 | 8.0 | 29.0 | 0.00 | 0.00 | 0.00 | 82 | 1020.4 |
| 20260504223017 | 13 | 297 | 9.7 | 20.9 | 0.00 | 0.00 | 0.00 | 83 | 1020.0 |
| 20260504221508 | 13 | 270 | 14.5 | 29.0 | 0.00 | 0.00 | 0.00 | 83 | 1019.7 |
| 20260504220037 | 13 | 315 | 14.5 | 24.1 | 0.00 | 0.00 | 0.00 | 84 | 1019.4 |
| 20260504214519 | 13 | 272 | 14.5 | 27.4 | 0.00 | 0.00 | 0.00 | 84 | 1019.1 |
| 20260504213106 | 13 | 267 | 9.7 | 22.5 | 0.00 | 0.00 | 0.00 | 85 | 1019.0 |
| 20260504211548 | 13 | 297 | 9.7 | 19.3 | 0.00 | 0.00 | 0.00 | 85 | 1018.6 |
| 20260504210036 | 12 | 292 | 11.3 | 24.1 | 0.00 | 0.00 | 0.00 | 85 | 1018.5 |
| 20260504204521 | 13 | 289 | 12.9 | 27.4 | 0.00 | 0.00 | 0.00 | 86 | 1018.4 |
| 20260504203008 | 13 | 286 | 11.3 | 24.1 | 0.00 | 0.00 | 0.00 | 86 | 1018.2 |
| 20260504201554 | 13 | 303 | 8.0 | 27.4 | 0.00 | 0.00 | 0.00 | 84 | 1017.8 |
| 20260504200043 | 13 | 306 | 12.9 | 24.1 | 0.00 | 0.00 | 0.00 | 84 | 1017.6 |
| 20260504194540 | 13 | 280 | 12.9 | 27.4 | 0.00 | 0.00 | 0.00 | 84 | 1017.5 |
| 20260504193032 | 13 | 292 | 9.7 | 19.3 | 0.00 | 0.00 | 0.00 | 83 | 1017.3 |
| 20260504191509 | 13 | 296 | 14.5 | 27.4 | 0.00 | 0.00 | 0.00 | 83 | 1017.3 |
| 20260504190121 | 13 | 281 | 11.3 | 24.1 | 0.00 | 0.00 | 0.00 | 83 | 1017.0 |
| 20260504190002 | 13 | 279 | 14.5 | 30.6 | 0.00 | 0.00 | 0.00 | 83 | 1017.0 |
| 20260504184549 | 13 | 325 | 14.5 | 25.7 | 0.00 | 0.00 | 0.00 | 82 | 1016.8 |
| 20260504183037 | 13 | 336 | 8.0 | 22.5 | 0.00 | 0.00 | 0.00 | 82 | 1016.4 |
| 20260504181533 | 13 | 300 | 11.3 | 24.1 | 0.00 | 0.00 | 0.00 | 82 | 1016.4 |
| 20260504180025 | 13 | 310 | 9.7 | 25.7 | 0.00 | 0.00 | 0.00 | 81 | 1016.1 |
| 20260504174519 | 13 | 327 | 9.7 | 25.7 | 0.00 | 0.00 | 0.00 | 81 | 1016.1 |
| 20260504173012 | 13 | 265 | 8.0 | 29.0 | 0.00 | 0.00 | 0.00 | 80 | 1016.1 |
| 20260504171505 | 13 | 292 | 12.9 | 29.0 | 0.00 | 0.00 | 0.00 | 80 | 1015.8 |